1519329600.33,30849,11.5,72744.0,-10.57,-22.21,-22.37,0,*62
1519329601.55,30850,11.5,72742.3,-10.57,-22.27,-22.27,0,*6D
1519329602.8,30851,11.5,72740.5,-10.57,-22.21,-22.27,0,*6A
1519329604.04,30852,11.5,72740.5,-10.57,-22.21,-22.27,0,*69
1519329605.26,30853,11.5,72744.3,-10.57,-22.27,-22.27,0,*6E
1519329606.5,30854,11.5,72744.0,-10.57,-22.21,-22.27,0,*6F
1519329607.72,30855,11.5,72742.8,-10.57,-22.27,-22.37,0,*69
1519329609.01,30856,11.5,72740.5,-10.59,-22.31,-22.31,0,*65
1519329610.23,30857,11.5,72740.5,-10.57,-22.11,-22.27,0,*6F
1519329611.48,30858,11.5,72740.8,-10.57,-22.21,-22.27,0,*63
1519329612.69,30859,11.5,72742.5,-10.57,-22.11,-22.27,0,*61
1519329613.91,30860,11.5,72742.5,-10.57,-22.27,-22.27,0,*6E
1519329615.18,30861,11.5,72742.0,-10.55,-22.21,-22.27,0,*6B
1519329616.4,30862,11.5,72740.8,-10.57,-22.11,-22.27,0,*69
1519329617.64,30863,11.5,72740.8,-10.57,-22.21,-22.27,0,*6B
1519329618.88,30864,11.5,72742.5,-10.57,-22.21,-22.37,0,*6D
1519329620.13,30865,11.5,72740.0,-10.57,-22.21,-22.27,0,*6D
1519329621.37,30866,11.5,72742.3,-10.57,-22.21,-22.27,0,*6E
1519329622.64,30867,11.5,72742.5,-10.59,-22.27,-22.31,0,*60
1519329623.91,30868,11.5,72740.5,-10.59,-22.27,-22.31,0,*6F
1519329625.21,30869,11.5,72742.0,-10.59,-22.17,-22.31,0,*6D
1519329626.42,30870,11.5,72746.0,-10.57,-22.07,-22.27,0,*6D
1519329627.64,30871,11.5,72742.5,-10.57,-22.11,-22.27,0,*6B
1519329628.85,30872,11.5,72742.0,-10.57,-22.07,-22.27,0,*6F
1519329630.06,30873,11.5,72744.0,-10.57,-22.07,-22.27,0,*6E
1519329631.27,30874,11.5,72740.0,-10.57,-22.07,-22.27,0,*69
1519329632.51,30875,11.5,72742.5,-10.59,-22.11,-22.27,0,*61
1519329633.75,30876,11.5,72740.5,-10.57,-22.11,-22.21,0,*6A
1519329634.99,30877,11.5,72742.0,-10.57,-22.11,-22.21,0,*6B
1519329636.23,30878,11.5,72742.8,-10.57,-22.07,-22.21,0,*63
1519329637.5,30879,11.5,72744.0,-10.59,-22.17,-22.27,0,*6B
1519329638.77,30880,11.5,72742.5,-10.59,-22.17,-22.27,0,*6D
1519329639.99,30881,11.5,72742.8,-10.57,-22.11,-22.27,0,*64
1519329641.21,30882,11.5,72740.5,-10.57,-22.11,-22.27,0,*67
1519329642.42,30883,11.5,72738.8,-10.57,-22.07,-22.27,0,*61
1519329643.72,30884,11.5,72742.5,-10.59,-22.17,-22.31,0,*6E
1519329644.93,30885,11.5,72742.8,-10.57,-22.07,-22.27,0,*67
1519329646.16,30886,11.5,72744.0,-10.57,-22.07,-22.21,0,*62
1519329647.4,30887,11.5,72744.8,-10.57,-22.07,-22.21,0,*63
1519329648.63,30888,11.5,72742.5,-10.57,-22.07,-22.21,0,*6C
1519329649.87,30889,11.5,72740.0,-10.57,-22.11,-22.21,0,*6A
1519329651.11,30890,11.5,72740.8,-10.57,-22.07,-22.21,0,*65
1519329652.36,30891,11.5,72742.3,-10.55,-22.07,-22.21,0,*66
1519329653.6,30892,11.5,72742.5,-10.57,-22.07,-22.21,0,*67
1519329654.83,30893,11.5,72740.8,-10.57,-22.07,-22.21,0,*66
1519329656.07,30894,11.5,72740.0,-10.57,-22.07,-22.21,0,*61
1519329657.3,30895,11.5,72740.8,-10.57,-22.07,-22.21,0,*60
1519329658.54,30896,11.5,72742.3,-10.57,-22.07,-22.21,0,*63
1519329659.77,30897,11.5,72740.5,-10.57,-22.07,-22.21,0,*62
1519329661.0,30898,11.5,72742.5,-10.57,-22.07,-22.21,0,*6D
1519329662.22,30899,11.5,72736.8,-10.57,-22.07,-22.11,0,*6F
1519329663.48,30900,11.5,72740.8,-10.57,-21.97,-22.21,0,*67
1519329664.72,30901,11.5,72740.0,-10.57,-22.03,-22.17,0,*6D
1519329665.99,30902,11.5,72740.3,-10.57,-21.97,-22.21,0,*65
1519329667.25,30903,11.5,72740.3,-10.57,-21.97,-22.21,0,*64
1519329668.52,30904,11.5,72740.8,-10.57,-21.97,-22.21,0,*63
1519329669.8,30905,11.5,72740.5,-10.55,-21.97,-22.21,0,*60
1519329671.07,30906,11.5,72742.5,-10.57,-21.97,-22.21,0,*61
1519329672.33,30907,11.5,72738.8,-10.57,-21.97,-22.21,0,*60
1519329673.6,30908,11.5,72742.0,-10.57,-21.97,-22.21,0,*6F
1519329674.84,30909,11.5,72740.0,-10.57,-21.97,-22.27,0,*68
1519329676.1,30910,11.5,72740.8,-10.57,-21.97,-22.21,0,*66
1519329677.37,30911,11.5,72742.8,-10.57,-21.97,-22.21,0,*67
1519329678.61,30912,11.5,72744.5,-10.57,-22.11,-22.21,0,*69
1519329679.84,30913,11.5,72742.8,-10.57,-22.07,-22.21,0,*6F
1519329681.08,30914,11.5,72744.3,-10.57,-22.07,-22.21,0,*68
1519329682.32,30915,11.5,72744.3,-10.59,-22.11,-22.27,0,*66
1519329683.55,30916,11.5,72740.3,-10.57,-22.07,-22.21,0,*6A
1519329684.79,30917,11.5,72746.0,-10.59,-22.03,-22.27,0,*67
1519329686.05,30918,11.5,72742.3,-10.57,-21.97,-22.21,0,*6E
1519329687.27,30919,11.5,72742.8,-10.57,-22.03,-22.27,0,*67
1519329688.56,30920,11.5,72744.3,-10.55,-21.97,-22.21,0,*67
1519329689.82,30921,11.5,72742.3,-10.57,-21.97,-22.21,0,*64
1519329691.09,30922,11.5,72746.0,-10.57,-21.97,-22.21,0,*67
1519329692.35,30923,11.5,72742.3,-10.57,-21.97,-22.21,0,*66
1519329693.59,30924,11.5,72740.0,-10.57,-21.93,-22.21,0,*65
1519329694.86,30925,11.5,72744.0,-10.55,-21.97,-22.11,0,*61
1519329696.1,30926,11.5,72742.0,-10.55,-21.93,-22.11,0,*66
1519329697.35,30927,11.5,72740.5,-10.57,-21.87,-22.11,0,*60
1519329698.61,30928,11.5,72744.5,-10.57,-21.97,-22.21,0,*6D
1519329699.88,30929,11.5,72746.3,-10.57,-21.97,-22.21,0,*6C
1519329701.14,30930,11.5,72742.3,-10.57,-21.97,-22.21,0,*64
1519329702.4,30931,11.5,72740.5,-10.57,-21.97,-22.21,0,*65
1519329703.65,30932,11.5,72742.5,-10.57,-21.93,-22.21,0,*62
1519329704.91,30933,11.5,72740.0,-10.57,-21.97,-22.21,0,*67
1519329706.18,30934,11.5,72744.5,-10.55,-21.93,-22.21,0,*66
1519329707.45,30935,11.5,72742.5,-10.55,-21.93,-22.21,0,*67
1519329708.69,30936,11.5,72742.0,-10.55,-21.93,-22.11,0,*67
1519329709.95,30937,11.5,72742.3,-10.57,-21.97,-22.21,0,*63
1519329711.2,30938,11.5,72742.3,-10.57,-21.93,-22.21,0,*68
1519329712.44,30939,11.5,72740.8,-10.57,-21.93,-22.21,0,*69
1519329713.71,30940,11.5,72746.5,-10.57,-21.97,-22.21,0,*63
1519329714.97,30941,11.5,72740.5,-10.57,-21.97,-22.21,0,*62
1519329716.23,30942,11.5,72740.8,-10.57,-21.97,-22.21,0,*61
1519329717.5,30943,11.5,72740.5,-10.55,-21.97,-22.11,0,*61
1519329718.77,30944,11.5,72740.3,-10.55,-21.87,-22.11,0,*67
1519329720.06,30945,11.5,72742.0,-10.55,-21.87,-22.21,0,*65
1519329721.33,30946,11.5,72742.0,-10.55,-21.93,-22.21,0,*63
1519329722.59,30947,11.5,72744.3,-10.55,-21.93,-22.21,0,*62
1519329723.89,30948,11.5,72744.3,-10.55,-21.87,-22.21,0,*68
1519329725.18,30949,11.5,72740.8,-10.55,-21.87,-22.21,0,*69
1519329726.45,30950,11.5,72742.3,-10.55,-21.93,-22.21,0,*64
1519329727.72,30951,11.5,72742.0,-10.53,-21.87,-22.17,0,*63
1519329728.99,30952,11.5,72746.5,-10.55,-21.93,-22.21,0,*66
1519329730.28,30953,11.5,72742.3,-10.55,-21.87,-22.21,0,*62
1519329731.56,30954,11.5,72742.5,-10.53,-21.87,-22.17,0,*66
1519329732.83,30955,11.5,72746.0,-10.55,-21.93,-22.21,0,*61
1519329734.09,30956,11.5,72746.5,-10.55,-21.93,-22.21,0,*62
1519329735.36,30957,11.5,72742.5,-10.55,-21.93,-22.21,0,*63
1519329736.63,30958,11.5,72744.8,-10.53,-21.83,-22.17,0,*6E
1519329737.9,30959,11.5,72742.3,-10.53,-21.83,-22.17,0,*6F
1519329739.2,30960,11.5,72742.0,-10.55,-21.87,-22.21,0,*62
1519329740.47,30961,11.5,72742.5,-10.53,-21.83,-22.17,0,*64
1519329741.76,30962,11.5,72738.5,-10.55,-21.87,-22.21,0,*60
1519329743.03,30963,11.5,72740.8,-10.57,-21.87,-22.21,0,*63
1519329744.28,30964,11.5,72744.3,-10.57,-21.77,-22.21,0,*6B
1519329745.55,30965,11.5,72742.3,-10.53,-21.87,-22.17,0,*64
1519329746.8,30966,11.5,72740.8,-10.53,-21.73,-22.17,0,*6C
1519329748.07,30967,11.5,72746.0,-10.55,-21.77,-22.21,0,*6A
1519329749.36,30968,11.5,72740.8,-10.55,-21.87,-22.21,0,*6A
1519329750.65,30969,11.5,72742.0,-10.55,-21.87,-22.21,0,*6B
1519329751.95,30970,11.5,72742.3,-10.55,-21.87,-22.21,0,*63
1519329753.24,30971,11.5,72742.0,-10.55,-21.87,-22.21,0,*62
1519329754.51,30972,11.5,72740.0,-10.53,-21.83,-22.17,0,*66
1519329755.78,30973,11.5,72744.3,-10.53,-21.83,-22.17,0,*67
1519329757.08,30974,11.5,72744.3,-10.55,-21.87,-22.21,0,*67
1519329758.35,30975,11.5,72740.0,-10.53,-21.83,-22.17,0,*61
1519329759.59,30976,11.5,72744.8,-10.53,-21.73,-22.21,0,*68
1519329760.86,30977,11.5,72740.5,-10.55,-21.87,-22.27,0,*62
1519329762.13,30978,11.5,72742.5,-10.55,-21.77,-22.21,0,*64
1519329763.4,30979,11.5,72744.0,-10.55,-21.77,-22.21,0,*65
1519329764.66,30980,11.5,72742.5,-10.55,-21.93,-22.21,0,*69
1519329765.95,30981,11.5,72744.0,-10.55,-21.87,-22.21,0,*6D
1519329767.22,30982,11.5,72738.8,-10.55,-21.77,-22.21,0,*61
1519329768.49,30983,11.5,72742.3,-10.53,-21.83,-22.17,0,*68
1519329769.79,30984,11.5,72744.0,-10.55,-21.87,-22.21,0,*68
1519329771.05,30985,11.5,72742.5,-10.55,-21.77,-22.21,0,*66
1519329772.33,30986,11.5,72740.3,-10.53,-21.83,-22.17,0,*6D
1519329773.6,30987,11.5,72740.8,-10.53,-21.83,-22.17,0,*6C
1519329774.89,30988,11.5,72740.0,-10.55,-21.87,-22.21,0,*64
1519329776.16,30989,11.5,72738.8,-10.55,-21.77,-22.21,0,*6A
1519329777.41,30990,11.5,72742.5,-10.53,-21.73,-22.17,0,*65
1519329778.65,30991,11.5,72742.5,-10.53,-21.73,-22.17,0,*64
1519329779.9,30992,11.5,72742.0,-10.53,-21.73,-22.21,0,*62
1519329781.16,30993,11.5,72742.0,-10.55,-21.77,-22.21,0,*61
1519329782.41,30994,11.5,72742.3,-10.53,-21.73,-22.17,0,*61
1519329783.68,30995,11.5,72744.3,-10.53,-21.83,-22.17,0,*6F
1519329784.93,30996,11.5,72742.8,-10.53,-21.73,-22.17,0,*63
1519329786.23,30997,11.5,72740.8,-10.55,-21.87,-22.21,0,*6A
1519329787.5,30998,11.5,72742.8,-10.53,-21.83,-22.17,0,*62
1519329788.76,30999,11.5,72740.0,-10.55,-21.73,-22.21,0,*6F
1519329790.01,31000,11.5,72742.0,-10.55,-21.77,-22.11,0,*60
1519329791.28,31001,11.5,72742.0,-10.53,-21.67,-22.17,0,*60
1519329792.53,31002,11.5,72744.0,-10.53,-21.73,-22.17,0,*66
1519329793.8,31003,11.5,72744.3,-10.53,-21.57,-22.17,0,*61
1519329795.07,31004,11.5,72740.3,-10.55,-21.77,-22.21,0,*67
1519329796.34,31005,11.5,72742.0,-10.53,-21.67,-22.17,0,*64
1519329797.62,31006,11.5,72740.8,-10.53,-21.67,-22.17,0,*67
1519329798.89,31007,11.5,72740.5,-10.55,-21.73,-22.21,0,*60
1519329800.13,31008,11.5,72742.3,-10.53,-21.73,-22.17,0,*6C
1519329801.38,31009,11.5,72742.5,-10.53,-21.73,-22.17,0,*6D
1519329802.65,31010,11.5,72742.5,-10.55,-21.77,-22.21,0,*62
1519329803.91,31011,11.5,72742.8,-10.55,-21.77,-22.21,0,*63
1519329805.19,31012,11.5,72742.0,-10.53,-21.83,-22.17,0,*68
1519329806.45,31013,11.5,72740.5,-10.55,-21.77,-22.21,0,*61
1519329807.7,31014,11.5,72742.5,-10.53,-21.73,-22.17,0,*61
1519329808.95,31015,11.5,72740.5,-10.53,-21.73,-22.17,0,*60
1519329810.19,31016,11.5,72740.8,-10.53,-21.57,-22.07,0,*64
1519329811.46,31017,11.5,72742.5,-10.53,-21.57,-22.17,0,*64
1519329812.74,31018,11.5,72742.8,-10.53,-21.67,-22.17,0,*68
1519329813.98,31019,11.5,72742.3,-10.53,-21.73,-22.21,0,*69
1519329815.23,31020,11.5,72742.8,-10.53,-21.73,-22.17,0,*66
1519329816.5,31021,11.5,72740.5,-10.53,-21.83,-22.17,0,*68
1519329817.75,31022,11.5,72742.8,-10.53,-21.73,-22.21,0,*61
1519329818.99,31023,11.5,72740.0,-10.55,-21.77,-22.27,0,*64
1519329820.25,31024,11.5,72742.0,-10.55,-21.73,-22.21,0,*61
1519329821.53,31025,11.5,72742.8,-10.53,-21.67,-22.17,0,*66
1519329822.81,31026,11.5,72744.0,-10.53,-21.67,-22.17,0,*65
1519329824.08,31027,11.5,72740.5,-10.53,-21.67,-22.17,0,*64
1519329825.34,31028,11.5,72746.0,-10.55,-21.63,-22.21,0,*6C
1519329826.61,31029,11.5,72740.3,-10.55,-21.63,-22.21,0,*6D
1519329827.88,31030,11.5,72746.5,-10.53,-21.57,-22.17,0,*61
1519329829.15,31031,11.5,72744.0,-10.53,-21.57,-22.17,0,*60
1519329830.39,31032,11.5,72744.5,-10.53,-21.67,-22.07,0,*61
1519329831.67,31033,11.5,72744.0,-10.53,-21.67,-22.17,0,*61
1519329832.94,31034,11.5,72742.3,-10.53,-21.57,-22.17,0,*65
1519329834.19,31035,11.5,72742.3,-10.53,-21.73,-22.17,0,*62
1519329835.44,31036,11.5,72744.0,-10.53,-21.73,-22.17,0,*61
1519329836.68,31037,11.5,72742.5,-10.53,-21.73,-22.21,0,*65
1519329837.95,31038,11.5,72740.0,-10.53,-21.67,-22.17,0,*6A
1519329839.22,31039,11.5,72742.5,-10.55,-21.63,-22.21,0,*6C
1519329840.48,31040,11.5,72740.3,-10.55,-21.73,-22.21,0,*63
1519329841.76,31041,11.5,72742.5,-10.53,-21.67,-22.17,0,*64
1519329843.0,31042,11.5,72740.5,-10.55,-21.73,-22.37,0,*66
1519329844.24,31043,11.5,72740.5,-10.53,-21.73,-22.21,0,*66
1519329845.48,31044,11.5,72742.5,-10.55,-21.77,-22.27,0,*65
1519329846.75,31045,11.5,72744.0,-10.53,-21.57,-22.21,0,*66
1519329847.99,31046,11.5,72740.8,-10.55,-21.63,-22.27,0,*62
1519329849.23,31047,11.5,72746.3,-10.55,-21.73,-22.27,0,*62
1519329850.5,31048,11.5,72742.5,-10.53,-21.67,-22.21,0,*68
1519329851.74,31049,11.5,72740.5,-10.55,-21.63,-22.27,0,*6D
1519329852.98,31050,11.5,72742.3,-10.55,-21.63,-22.27,0,*65
1519329854.24,31051,11.5,72744.0,-10.55,-21.63,-22.21,0,*62
1519329855.52,31052,11.5,72744.8,-10.53,-21.67,-22.17,0,*66
1519329856.75,31053,11.5,72740.5,-10.55,-21.63,-22.27,0,*66
1519329858.0,31054,11.5,72744.5,-10.55,-21.73,-22.27,0,*60
1519329859.27,31055,11.5,72744.5,-10.53,-21.67,-22.21,0,*64
1519329860.53,31056,11.5,72742.0,-10.53,-21.57,-22.21,0,*64
1519329861.79,31057,11.5,72746.0,-10.55,-21.63,-22.21,0,*64
1519329863.08,31058,11.5,72744.8,-10.55,-21.57,-22.21,0,*6C
1519329864.34,31059,11.5,72744.3,-10.55,-21.63,-22.21,0,*6A
1519329865.62,31060,11.5,72742.5,-10.53,-21.57,-22.17,0,*64
1519329866.88,31061,11.5,72742.0,-10.55,-21.73,-22.21,0,*60
1519329868.15,31062,11.5,72742.8,-10.53,-21.57,-22.17,0,*66
1519329869.42,31063,11.5,72742.8,-10.53,-21.57,-22.21,0,*62
1519329870.69,31064,11.5,72744.0,-10.53,-21.67,-22.21,0,*66
1519329871.96,31065,11.5,72740.0,-10.53,-21.67,-22.21,0,*67
1519329873.19,31066,11.5,72744.3,-10.55,-21.63,-22.27,0,*60
1519329874.43,31067,11.5,72744.5,-10.55,-21.73,-22.37,0,*61
1519329875.68,31068,11.5,72742.5,-10.55,-21.73,-22.27,0,*6F
1519329876.92,31069,11.5,72742.3,-10.55,-21.63,-22.27,0,*6F
1519329878.16,31070,11.5,72740.3,-10.55,-21.63,-22.27,0,*67
1519329879.37,31071,11.5,72740.8,-10.53,-21.73,-22.27,0,*61
1519329880.64,31072,11.5,72744.3,-10.53,-21.67,-22.21,0,*61
1519329881.91,31073,11.5,72742.3,-10.53,-21.67,-22.21,0,*60
1519329883.15,31074,11.5,72742.5,-10.55,-21.63,-22.27,0,*63
1519329884.41,31075,11.5,72744.8,-10.55,-21.63,-22.21,0,*64
1519329885.68,31076,11.5,72744.0,-10.53,-21.57,-22.21,0,*66
1519329886.92,31077,11.5,72742.8,-10.55,-21.73,-22.27,0,*61
1519329888.19,31078,11.5,72742.8,-10.53,-21.57,-22.21,0,*68
1519329889.43,31079,11.5,72744.0,-10.55,-21.73,-22.37,0,*6E
1519329890.67,31080,11.5,72744.3,-10.55,-21.63,-22.27,0,*68
1519329891.93,31081,11.5,72744.0,-10.53,-21.57,-22.21,0,*6E
1519329893.19,31082,11.5,72742.5,-10.55,-21.63,-22.21,0,*6C
1519329894.43,31083,11.5,72742.8,-10.55,-21.63,-22.27,0,*6B
1519329895.7,31084,11.5,72742.8,-10.53,-21.67,-22.21,0,*68
1519329896.97,31085,11.5,72746.0,-10.53,-21.57,-22.21,0,*6A
1519329898.23,31086,11.5,72742.3,-10.53,-21.57,-22.21,0,*69
1519329899.5,31087,11.5,72746.0,-10.53,-21.57,-22.21,0,*68
1519329900.76,31088,11.5,72746.5,-10.55,-21.57,-22.37,0,*66
1519329902.0,31089,11.5,72742.0,-10.55,-21.63,-22.27,0,*61
1519329903.27,31090,11.5,72746.0,-10.53,-21.67,-22.21,0,*6D
1519329904.54,31091,11.5,72746.0,-10.53,-21.67,-22.31,0,*6D
1519329905.78,31092,11.5,72746.8,-10.55,-21.63,-22.37,0,*6A
1519329907.02,31093,11.5,72742.5,-10.55,-21.73,-22.37,0,*6A
1519329908.29,31094,11.5,72744.8,-10.53,-21.67,-22.21,0,*69
1519329909.5,31095,11.5,72742.5,-10.53,-21.73,-22.37,0,*6A
1519329910.74,31096,11.5,72744.3,-10.55,-21.73,-22.37,0,*6F
1519329911.98,31097,11.5,72746.0,-10.55,-21.77,-22.37,0,*6A
1519329913.25,31098,11.5,72742.3,-10.55,-21.87,-22.37,0,*6A
1519329914.52,31099,11.5,72742.0,-10.53,-21.67,-22.31,0,*65
1519329915.77,31100,11.5,72744.8,-10.53,-21.73,-22.31,0,*61
1519329917.02,31101,11.5,72744.0,-10.53,-21.73,-22.31,0,*60
1519329918.25,31102,11.5,72746.0,-10.55,-21.77,-22.41,0,*66
1519329919.49,31103,11.5,72744.3,-10.55,-21.77,-22.41,0,*67
1519329920.73,31104,11.5,72740.8,-10.55,-21.77,-22.41,0,*60
1519329921.94,31105,11.5,72744.5,-10.53,-21.73,-22.41,0,*63
1519329923.18,31106,11.5,72746.3,-10.55,-21.77,-22.37,0,*63
1519329924.4,31107,11.5,72744.3,-10.53,-21.73,-22.37,0,*60
1519329925.64,31108,11.5,72742.8,-10.55,-21.77,-22.41,0,*6C
1519329926.88,31109,11.5,72746.3,-10.55,-21.77,-22.53,0,*6E
1519329928.12,31110,11.5,72746.3,-10.53,-21.83,-22.37,0,*69
1519329929.33,31111,11.5,72746.0,-10.53,-21.77,-22.41,0,*62
1519329930.57,31112,11.5,72746.8,-10.55,-21.77,-22.41,0,*67
1519329931.79,31113,11.5,72740.0,-10.53,-21.73,-22.37,0,*65
1519329933.03,31114,11.5,72746.0,-10.55,-21.77,-22.53,0,*62
1519329934.3,31115,11.5,72740.3,-10.55,-21.87,-22.41,0,*6F
1519329935.54,31116,11.5,72740.5,-10.55,-21.77,-22.53,0,*60
1519329936.81,31117,11.5,72746.0,-10.55,-21.87,-22.41,0,*6D
1519329938.05,31118,11.5,72746.0,-10.53,-21.83,-22.37,0,*61
1519329939.32,31119,11.5,72744.3,-10.55,-21.87,-22.53,0,*60
1519329940.56,31120,11.5,72746.3,-10.53,-21.83,-22.37,0,*6A
1519329941.81,31121,11.5,72742.8,-10.57,-21.87,-22.53,0,*69
1519329943.02,31122,11.5,72742.8,-10.57,-21.77,-22.41,0,*66
1519329944.3,31123,11.5,72746.0,-10.53,-21.83,-22.47,0,*6E
1519329945.53,31124,11.5,72744.8,-10.55,-21.77,-22.41,0,*62
1519329946.8,31125,11.5,72746.0,-10.55,-21.87,-22.53,0,*6F
1519329948.07,31126,11.5,72744.5,-10.55,-21.87,-22.41,0,*6F
1519329949.34,31127,11.5,72742.5,-10.55,-21.87,-22.53,0,*6D
1519329950.61,31128,11.5,72742.0,-10.55,-21.87,-22.53,0,*62
1519329951.87,31129,11.5,72746.8,-10.55,-21.87,-22.41,0,*60
1519329953.15,31130,11.5,72744.3,-10.55,-21.87,-22.53,0,*6B
1519329954.39,31131,11.5,72746.3,-10.57,-21.87,-22.41,0,*6B
1519329955.64,31132,11.5,72742.8,-10.53,-21.73,-22.47,0,*61
1519329956.88,31133,11.5,72740.8,-10.55,-21.77,-22.53,0,*67
1519329958.13,31134,11.5,72744.5,-10.55,-21.77,-22.53,0,*60
1519329959.37,31135,11.5,72744.8,-10.55,-21.93,-22.53,0,*6B
1519329960.64,31136,11.5,72742.0,-10.55,-21.87,-22.53,0,*6D
1519329961.91,31137,11.5,72746.3,-10.55,-21.87,-22.53,0,*6C
1519329963.18,31138,11.5,72746.3,-10.55,-21.87,-22.41,0,*60
1519329964.45,31139,11.5,72744.3,-10.53,-21.83,-22.47,0,*65
1519329965.69,31140,11.5,72746.8,-10.55,-21.93,-22.53,0,*69
1519329966.97,31141,11.5,72744.0,-10.55,-21.87,-22.53,0,*6D
1519329968.21,31142,11.5,72744.3,-10.53,-21.83,-22.37,0,*6E
1519329969.45,31143,11.5,72746.3,-10.55,-21.93,-22.57,0,*6E
1519329970.72,31144,11.5,72746.5,-10.55,-21.97,-22.57,0,*6D
1519329971.96,31145,11.5,72746.5,-10.55,-21.93,-22.57,0,*68
1519329973.23,31146,11.5,72742.0,-10.55,-21.87,-22.67,0,*6D
1519329974.47,31147,11.5,72744.8,-10.55,-21.93,-22.57,0,*6A
1519329975.74,31148,11.5,72744.3,-10.55,-21.97,-22.57,0,*61
1519329976.96,31149,11.5,72746.5,-10.57,-21.93,-22.57,0,*66
1519329978.2,31150,11.5,72744.8,-10.57,-21.97,-22.57,0,*6A
1519329979.45,31151,11.5,72746.0,-10.55,-21.93,-22.57,0,*6D
1519329980.72,31152,11.5,72746.0,-10.55,-21.87,-22.57,0,*6B
1519329981.99,31153,11.5,72740.8,-10.55,-21.87,-22.57,0,*6A
1519329983.25,31154,11.5,72744.0,-10.55,-21.97,-22.57,0,*6C
1519329984.52,31155,11.5,72742.5,-10.55,-21.97,-22.57,0,*6D
1519329985.76,31156,11.5,72742.3,-10.55,-21.93,-22.57,0,*6A
1519329987.0,31157,11.5,72746.5,-10.55,-21.93,-22.67,0,*68
1519329988.27,31158,11.5,72744.0,-10.55,-21.97,-22.57,0,*60
1519329989.53,31159,11.5,72740.3,-10.55,-21.97,-22.67,0,*62
1519329990.77,31160,11.5,72744.8,-10.55,-21.93,-22.67,0,*6C
1519329992.02,31161,11.5,72744.0,-10.55,-21.93,-22.57,0,*6E
1519329993.26,31162,11.5,72744.8,-10.55,-21.93,-22.57,0,*6D
1519329994.53,31163,11.5,72746.5,-10.55,-21.97,-22.67,0,*6B
1519329995.77,31164,11.5,72742.8,-10.55,-21.93,-22.67,0,*68
1519329997.01,31165,11.5,72742.8,-10.55,-21.93,-22.67,0,*69
1519329998.25,31166,11.5,72744.8,-10.55,-21.93,-22.67,0,*6A
1519329999.52,31167,11.5,72744.5,-10.55,-21.97,-22.67,0,*6F
1519330000.78,31168,11.5,72744.0,-10.55,-21.97,-22.57,0,*63
1519330002.05,31169,11.5,72746.0,-10.55,-21.97,-22.57,0,*62
1519330003.29,31170,11.5,72740.8,-10.53,-21.87,-22.53,0,*69
1519330004.51,31171,11.5,72744.3,-10.57,-21.93,-22.67,0,*6E
1519330005.76,31172,11.5,72740.3,-10.55,-21.93,-22.67,0,*6F
1519330007.04,31173,11.5,72742.0,-10.55,-21.97,-22.73,0,*6F
1519330008.33,31174,11.5,72748.3,-10.55,-21.97,-22.73,0,*68
1519330009.59,31175,11.5,72744.5,-10.55,-21.97,-22.83,0,*66
1519330010.88,31176,11.5,72744.5,-10.55,-21.97,-22.73,0,*6A
1519330012.1,31177,11.5,72746.5,-10.53,-21.93,-22.67,0,*6C
1519330013.38,31178,11.5,72746.5,-10.55,-21.97,-22.73,0,*64
1519330014.67,31179,11.5,72746.3,-10.55,-21.97,-22.73,0,*65
1519330015.94,31180,11.5,72746.5,-10.55,-21.93,-22.73,0,*67
1519330017.18,31181,11.5,72742.0,-10.53,-21.93,-22.77,0,*64
1519330018.45,31182,11.5,72744.0,-10.53,-21.97,-22.77,0,*63
1519330019.71,31183,11.5,72744.3,-10.55,-21.97,-22.83,0,*6F
1519330020.95,31184,11.5,72746.0,-10.57,-21.97,-22.83,0,*6A
1519330022.2,31185,11.5,72746.3,-10.57,-21.97,-22.83,0,*6B
1519330023.46,31186,11.5,72740.3,-10.55,-21.97,-22.83,0,*6A
1519330024.72,31187,11.5,72744.3,-10.55,-21.93,-22.73,0,*60
1519330025.99,31188,11.5,72746.0,-10.55,-21.97,-22.83,0,*64
1519330027.24,31189,11.5,72746.3,-10.55,-22.07,-22.73,0,*60
1519330028.48,31190,11.5,72746.5,-10.57,-22.07,-22.73,0,*6A
1519330029.69,31191,11.5,72744.0,-10.57,-22.07,-22.83,0,*64
1519330030.9,31192,11.44,72742.0,-10.57,-22.07,-22.83,0,*67
1519330032.11,31193,11.5,72744.8,-10.57,-22.07,-22.83,0,*66
1519330033.32,31194,11.5,72740.3,-10.57,-22.07,-22.83,0,*61
1519330034.53,31195,11.5,72746.3,-10.57,-22.07,-22.83,0,*60
1519330035.74,31196,11.5,72744.0,-10.57,-22.07,-22.83,0,*63
1519330036.98,31197,11.5,72744.8,-10.55,-22.07,-22.83,0,*60
1519330038.19,31198,11.5,72740.5,-10.57,-22.07,-22.83,0,*6D
1519330039.4,31199,11.44,72740.0,-10.57,-22.07,-22.83,0,*6C
1519330040.61,31200,11.5,72740.8,-10.57,-22.07,-22.83,0,*6F
1519330041.82,31201,11.5,72744.3,-10.57,-22.07,-22.83,0,*6E
1519330043.06,31202,11.5,72746.8,-10.55,-22.11,-22.83,0,*68
1519330044.29,31203,11.5,72744.0,-10.55,-22.07,-22.83,0,*6E
1519330045.53,31204,11.5,72744.3,-10.55,-22.07,-22.87,0,*6D
1519330046.76,31205,11.5,72746.0,-10.55,-22.07,-22.87,0,*6C
1519330048.0,31206,11.5,72746.8,-10.55,-22.11,-22.87,0,*68
1519330049.24,31207,11.5,72742.0,-10.55,-22.11,-22.83,0,*6D
1519330050.48,31208,11.5,72744.3,-10.55,-22.11,-22.87,0,*66
1519330051.71,31209,11.5,72744.3,-10.55,-22.07,-22.87,0,*60
1519330052.93,31210,11.5,72746.5,-10.57,-22.07,-22.93,0,*6F
1519330054.15,31211,11.5,72746.3,-10.57,-22.11,-22.93,0,*69
1519330055.37,31212,11.5,72744.3,-10.57,-22.11,-22.87,0,*6F
1519330056.58,31213,11.5,72744.3,-10.57,-22.11,-22.87,0,*6E
1519330057.8,31214,11.5,72744.3,-10.57,-22.11,-22.93,0,*6C
1519330059.02,31215,11.5,72746.8,-10.57,-22.11,-22.93,0,*6D
1519330060.23,31216,11.44,72740.8,-10.53,-22.07,-22.83,0,*6C
1519330061.45,31217,11.5,72744.3,-10.57,-22.11,-22.93,0,*6F
1519330062.7,31218,11.44,72742.8,-10.57,-22.27,-23.03,0,*6D
1519330063.94,31219,11.5,72742.3,-10.59,-22.27,-22.97,0,*6E
1519330065.21,31220,11.5,72740.3,-10.57,-22.21,-23.03,0,*60
1519330066.46,31221,11.5,72746.3,-10.57,-22.21,-22.87,0,*6C
1519330067.71,31222,11.44,72742.8,-10.57,-22.21,-22.93,0,*6A
1519330068.95,31223,11.5,72746.5,-10.57,-22.21,-22.93,0,*6B
1519330070.17,31224,11.44,72742.8,-10.57,-22.11,-22.93,0,*6F
1519330071.39,31225,11.5,72742.5,-10.57,-22.11,-22.93,0,*6E
1519330072.64,31226,11.5,72742.0,-10.57,-22.11,-23.03,0,*65
1519330073.91,31227,11.5,72742.0,-10.57,-22.21,-23.03,0,*67
1519330075.18,31228,11.5,72744.3,-10.57,-22.21,-23.03,0,*68
1519330076.43,31229,11.5,72742.5,-10.57,-22.21,-22.93,0,*61
1519330077.67,31230,11.5,72742.0,-10.57,-22.27,-23.03,0,*67
1519330078.92,31231,11.5,72742.8,-10.57,-22.21,-22.93,0,*68
1519330080.17,31232,11.5,72744.5,-10.57,-22.21,-22.93,0,*6B
1519330081.46,31233,11.5,72744.3,-10.59,-22.31,-23.03,0,*6D
1519330082.7,31234,11.5,72744.5,-10.57,-22.27,-23.03,0,*63
1519330083.98,31235,11.5,72746.0,-10.59,-22.31,-23.09,0,*61
1519330085.22,31236,11.5,72740.8,-10.57,-22.27,-23.03,0,*61
1519330086.46,31237,11.5,72744.3,-10.57,-22.27,-23.03,0,*60
1519330087.71,31238,11.5,72746.0,-10.57,-22.27,-23.03,0,*6F
1519330088.95,31239,11.5,72744.8,-10.57,-22.27,-23.03,0,*6E
1519330090.18,31240,11.5,72744.3,-10.57,-22.27,-23.09,0,*6A
1519330091.42,31241,11.44,72740.8,-10.57,-22.27,-23.03,0,*61
1519330092.64,31242,11.5,72746.0,-10.57,-22.27,-23.09,0,*68
1519330093.86,31243,11.5,72748.0,-10.57,-22.37,-23.09,0,*68
1519330095.1,31244,11.5,72742.0,-10.59,-22.41,-23.13,0,*6B
1519330096.33,31245,11.5,72744.8,-10.57,-22.37,-23.09,0,*6E
1519330097.55,31246,11.5,72746.5,-10.57,-22.37,-23.09,0,*6D
1519330098.8,31247,11.5,72744.8,-10.57,-22.37,-23.19,0,*6D
1519330100.02,31248,11.5,72744.8,-10.57,-22.37,-23.09,0,*63